SCP
0 0 0 0 0 0 0 0 0 0 0 0 1 1 1 1 1 1 1 1 1 0 0 0 0 0 1 1 1 1 1 1 1 1 1 0 0 0 0 0 0 1 1 1
0 0 0 0 0 0 0 0 0 0 0 0 1 1 1 1 1 1 1 0 0 0 0 0 0 1 1 1 1 1 2 1 1 1 1 0 0 0 0 0 0 0 1 1
0 0 0 0 0 0 0 0 0 0 0 0 0 1 1 0 0 1 1 0 0 0 0 0 1 1 1 1 1 1 2 2 2 2 1 1 1 1 1 1 1 0 0 1
0 0 0 0 0 0 0 0 0 0 0 0 0 0 0 0 0 1 1 0 0 0 0 0 1 1 1 1 1 1 2 3 3 2 1 1 1 1 1 1 1 1 1 1
0 0 0 0 0 0 0 0 0 0 0 0 0 0 0 0 0 1 1 0 0 1 1 1 1 1 1 1 1 2 2 3 3 3 2 1 1 1 1 1 1 1 1 1
0 0 0 0 0 0 0 0 0 0 0 0 0 0 0 0 0 0 0 0 1 1 1 1 1 1 1 2 2 2 2 3 3 2 2 1 1 1 1 1 1 1 1 1
0 0 0 0 0 0 0 0 0 0 0 0 0 0 0 0 0 0 1 1 1 1 1 1 1 2 2 2 2 3 2 2 2 2 2 2 2 2 2 2 2 1 1 1
0 0 0 0 0 0 0 0 0 0 0 0 0 0 0 0 1 1 1 2 2 1 1 1 1 2 2 3 3 3 2 2 2 2 2 2 2 3 3 3 2 2 1 1
0 0 0 0 0 0 0 0 0 0 0 0 0 0 0 1 1 1 1 2 2 1 1 1 1 2 2 3 3 3 2 2 2 2 3 3 3 4 4 4 3 2 2 1
0 0 0 0 0 0 0 0 0 0 0 0 0 0 0 1 1 1 1 1 1 1 1 1 1 1 2 2 3 4 3 3 3 3 4 4 5 5 5 5 4 3 2 2
0 0 0 0 0 0 0 0 0 0 0 0 0 0 0 1 1 1 1 1 1 1 1 1 1 1 2 2 2 3 4 3 3 3 4 5 6 7 6 6 4 3 2 2
0 0 0 0 0 0 0 0 0 0 0 0 0 0 0 1 1 1 1 1 1 1 1 1 1 1 2 2 2 2 3 3 3 3 3 4 5 6 6 5 4 3 3 2
0 0 0 0 0 0 0 0 0 0 0 0 0 0 1 1 2 2 1 1 1 1 1 1 1 1 2 2 2 2 2 3 3 3 3 2 3 3 4 4 4 3 3 3
0 0 0 0 0 0 0 0 0 0 0 0 0 0 1 2 2 2 1 1 1 1 1 1 1 2 2 2 3 3 3 3 3 3 3 2 2 2 3 3 3 3 3 3
0 0 0 0 0 0 0 0 0 0 0 0 0 0 1 1 2 2 2 2 2 2 2 1 1 1 2 2 2 3 3 3 3 3 3 3 3 2 2 3 3 3 4 4
0 0 0 0 0 0 0 1 0 0 0 0 0 0 0 1 2 2 3 3 3 2 2 1 1 1 1 2 2 2 3 3 3 2 3 3 3 3 3 3 3 4 4 4
0 0 0 0 0 0 0 1 1 1 0 0 0 0 1 2 2 2 3 3 3 2 1 2 2 2 2 2 2 2 2 3 3 3 3 3 3 3 3 3 3 4 4 5
0 0 0 0 0 0 0 0 1 1 1 0 0 0 1 2 2 2 2 2 2 1 1 2 3 3 2 2 2 3 3 3 3 3 3 4 4 4 4 4 4 4 4 5
0 0 0 0 0 0 0 0 1 1 1 1 1 1 2 2 2 2 1 2 1 1 1 2 3 3 3 3 4 4 4 4 3 3 3 4 5 5 5 5 5 5 5 5
0 0 0 0 0 0 0 1 1 0 0 1 1 1 1 2 2 2 2 2 2 2 2 2 3 3 3 4 5 5 5 4 3 3 3 3 4 5 5 5 6 5 5 5
0 0 0 0 0 0 1 1 1 0 0 1 1 1 1 2 3 4 4 4 3 2 2 3 4 4 4 5 6 6 5 4 3 3 3 3 3 5 6 6 6 6 5 5
0 0 0 0 0 1 1 1 1 0 1 1 2 2 3 4 6 7 6 5 3 2 2 3 4 4 5 6 6 5 4 3 3 3 3 3 4 6 7 6 5 5 5 5
0 0 0 0 0 1 1 1 1 1 1 2 3 4 6 7 7 7 5 3 2 2 2 3 3 3 4 5 5 4 3 3 3 3 4 4 5 7 7 6 5 5 5 6
0 0 0 0 1 1 1 1 1 1 2 3 4 6 7 7 5 4 2 1 1 1 2 3 3 3 3 4 3 3 2 2 3 3 3 4 5 7 7 7 6 6 6 6
0 0 0 0 0 1 1 1 2 2 3 4 4 5 4 3 2 1 0 0 0 0 1 1 1 2 2 2 2 1 2 2 2 2 3 3 4 5 7 7 7 7 6 6
0 0 0 0 0 1 1 1 2 3 3 3 4 3 2 1 0 0 0 0 0 0 1 1 1 1 1 1 1 1 1 2 2 2 2 2 4 5 6 8 8 7 6 5
Wind_Speed
2 4 2 5 5 4 3 2 2 4 1 2 1 2 3 5 6 6 5 5 6 6 4 4 4 5 4 4 4 4 4 3 3 2 2 1 0 0 0 0 0 0 0 1
4 2 6 4 3 3 2 1 2 3 1 2 1 2 2 4 7 8 8 8 7 5 4 4 4 4 5 5 5 5 4 4 3 3 2 2 1 1 0 1 1 1 0 1
5 5 3 3 2 2 2 3 4 3 1 3 2 4 2 2 3 4 5 6 6 8 8 6 6 6 5 5 6 6 5 4 3 3 2 2 2 2 1 1 1 1 0 0
3 3 2 3 3 5 3 4 5 3 2 1 1 2 5 3 3 5 6 7 8 8 8 7 7 7 7 7 5 5 5 4 3 4 3 3 2 2 1 0 0 1 1 1
3 2 3 4 5 5 4 1 3 2 3 2 2 1 7 1 4 6 7 8 9 9 10 10 10 9 7 6 5 5 4 4 3 4 4 4 2 1 1 1 1 1 2 2
4 2 3 3 1 3 4 6 6 6 5 1 2 2 6 4 6 5 6 7 8 8 9 9 8 6 5 5 5 5 5 4 4 4 4 4 4 3 2 1 0 0 1 1
3 2 1 2 3 3 4 6 5 5 4 4 2 2 8 6 5 6 6 6 6 7 8 8 8 8 7 7 7 7 6 5 4 4 4 4 4 4 3 2 1 1 0 1
1 4 2 2 4 4 2 7 7 4 4 4 2 4 6 3 2 2 3 3 4 4 5 6 7 8 8 8 7 7 7 6 5 5 4 3 3 3 2 2 2 2 1 1
5 5 3 1 2 7 5 2 4 7 2 1 5 5 6 2 3 2 2 2 3 4 5 6 6 7 7 7 8 8 7 6 5 5 4 3 3 3 3 2 2 1 1 1
7 2 3 2 4 5 5 7 5 6 4 2 4 4 3 4 3 2 1 1 2 2 3 3 4 6 6 6 6 6 6 6 5 5 4 4 3 3 3 2 2 2 2 2
4 3 3 3 2 3 4 4 5 4 4 5 2 6 3 4 4 3 2 1 2 2 2 3 3 4 5 5 6 5 5 5 5 5 4 3 3 3 3 2 2 2 2 2
4 6 1 3 2 1 4 5 6 5 3 4 4 7 3 1 1 1 0 1 1 1 1 2 3 4 5 5 5 5 5 4 5 4 4 4 3 3 3 3 3 2 2 2
6 6 3 5 5 3 3 2 3 6 5 4 4 6 3 4 4 2 2 2 1 2 3 3 3 3 3 3 4 4 4 4 4 4 4 3 3 3 3 3 2 2 2 2
7 5 6 8 7 3 1 1 3 5 4 4 6 5 4 2 1 1 1 1 2 3 3 3 3 2 2 3 3 3 3 2 2 2 3 3 3 4 3 3 3 3 3 3
6 4 2 2 2 2 2 2 3 4 6 7 6 5 5 3 3 2 1 2 3 3 3 2 2 2 2 2 2 2 2 2 3 3 2 3 3 2 2 2 3 3 3 3
4 4 2 1 1 1 0 1 3 2 2 3 1 3 3 1 1 1 1 2 2 2 1 2 2 1 1 1 1 2 2 2 3 3 3 2 2 2 3 3 2 2 2 2
3 5 4 1 2 2 2 3 3 2 1 3 4 4 0 0 1 3 2 2 1 1 0 1 0 0 1 1 2 2 2 2 3 3 3 3 3 3 3 3 2 3 3 2
6 5 4 2 2 3 7 2 3 4 1 1 1 1 2 2 1 0 1 2 1 0 1 0 1 0 0 0 1 1 2 2 2 2 2 2 2 3 2 2 2 3 2 2
4 7 5 4 3 3 4 1 3 3 2 1 1 1 2 3 4 2 2 1 0 1 1 1 1 1 1 0 0 1 1 2 2 3 2 2 2 2 2 2 2 2 2 2
5 5 6 4 4 5 6 3 1 3 2 2 2 4 3 3 2 3 1 1 1 1 1 1 1 1 0 0 1 1 0 1 2 3 3 3 3 3 3 3 3 2 2 2
4 4 4 4 3 6 4 4 1 3 6 2 3 4 3 3 4 3 1 1 1 1 2 1 0 0 1 1 1 1 1 2 3 2 2 3 3 4 4 3 2 2 2 2
3 3 3 4 3 6 3 1 3 5 2 2 3 3 3 2 1 1 0 1 1 1 2 1 1 1 1 1 2 2 3 4 3 2 2 3 3 3 3 3 3 2 3 2
3 5 5 6 6 4 2 2 3 2 2 2 3 2 3 2 1 1 1 1 1 2 2 1 1 1 2 1 2 3 4 2 2 2 3 3 3 3 3 3 3 2 2 3
2 1 2 1 3 3 3 2 2 0 1 1 2 3 3 2 2 1 1 1 2 2 2 2 1 1 3 3 2 2 3 1 1 1 3 3 2 3 3 2 3 3 3 3
3 1 1 2 4 3 3 3 2 1 1 1 1 1 3 3 2 2 2 2 2 2 2 1 1 2 3 3 3 3 2 1 0 1 3 3 2 2 2 2 2 3 3 4
3 5 5 5 6 4 5 3 1 1 1 1 1 1 0 2 3 2 2 2 2 2 2 2 2 2 3 3 3 3 2 1 1 2 2 2 2 2 1 2 1 2 3 4
Wind_Direction
67 83 192 216 197 183 167 176 263 271 234 122 189 236 233 179 175 183 190 194 200 206 202 183 177 171 161 160 162 169 164 159 142 133 137 132 153 329 14 320 289 224 161 144
50 251 227 196 180 158 159 179 272 306 15 111 193 274 250 189 196 192 190 198 202 193 182 185 181 174 176 180 181 179 177 170 164 158 156 150 142 135 175 340 8 20 118 152
183 228 191 165 166 165 211 190 210 225 14 51 76 337 300 252 206 195 196 199 198 196 194 192 190 186 178 183 187 187 184 175 171 152 121 96 75 50 36 12 350 338 40 123
227 244 181 177 198 167 237 217 185 174 106 312 81 278 284 259 252 218 211 203 202 202 196 193 193 192 190 192 183 177 171 166 161 149 140 136 144 163 202 231 327 355 21 45
237 203 179 208 211 173 206 127 118 113 119 58 20 172 283 319 263 248 227 217 208 200 196 196 197 195 192 183 175 172 163 164 162 155 153 147 150 169 143 84 55 18 12 24
244 242 195 206 157 143 128 74 58 52 68 19 244 181 274 237 232 244 225 217 209 200 197 198 194 184 182 173 167 166 165 173 167 164 165 162 166 159 140 129 112 8 356 3
321 320 282 130 85 50 87 87 39 7 13 259 265 197 251 252 236 219 212 206 198 192 189 190 186 183 182 178 176 173 172 181 177 172 176 174 172 163 172 184 186 180 243 305
179 287 252 193 169 173 165 135 151 187 221 278 325 237 256 271 268 231 199 179 168 176 183 188 190 185 184 182 177 174 176 184 181 181 188 182 174 172 186 191 184 195 215 236
171 251 287 239 166 136 130 134 153 129 131 315 288 287 306 352 24 42 92 121 160 180 184 189 183 177 180 178 178 177 176 178 178 180 178 177 178 183 194 194 189 200 217 219
156 217 300 315 72 42 123 138 98 111 138 242 296 289 270 303 328 355 37 184 198 183 185 182 178 180 178 174 171 168 173 177 177 173 177 180 184 193 194 182 190 202 211 209
135 149 317 29 122 166 91 84 97 105 141 154 236 270 247 237 228 213 227 233 208 173 180 179 174 169 161 154 154 160 169 168 167 173 175 174 181 192 186 191 208 211 211 205
136 121 214 271 282 166 136 146 140 141 199 171 180 262 320 250 180 161 153 21 51 134 141 147 140 137 136 145 154 161 169 176 183 177 170 178 185 183 189 202 213 205 207 211
133 113 83 353 346 19 82 120 130 120 118 154 173 261 348 32 55 58 72 53 43 80 79 88 95 123 141 148 150 155 169 183 186 173 172 179 186 192 201 209 212 210 216 221
113 109 154 186 210 193 164 158 153 127 144 189 218 243 302 349 19 2 35 53 55 68 80 88 93 106 135 137 141 152 165 168 161 162 176 191 202 205 206 208 206 213 215 216
98 119 161 202 207 156 166 190 174 171 180 181 217 223 256 247 223 208 124 78 75 66 63 75 89 80 78 98 117 142 155 154 153 154 187 211 208 204 201 202 206 212 218 221
76 118 115 58 23 110 124 260 195 197 179 196 204 256 270 253 118 94 108 104 94 83 69 61 64 74 87 118 138 144 158 165 156 168 194 200 202 206 211 213 201 201 213 220
88 115 111 214 296 51 280 238 186 168 171 168 201 240 245 101 181 190 166 114 119 117 89 81 71 230 241 216 172 171 176 167 164 180 195 198 199 206 219 219 206 211 216 211
127 109 119 127 87 214 242 276 144 134 129 167 220 247 193 186 208 153 123 131 119 58 12 266 220 211 264 272 165 151 152 156 166 181 192 198 196 205 201 197 212 229 225 212
130 131 119 122 157 261 291 259 152 147 224 232 176 142 116 94 55 16 18 62 195 252 272 269 244 198 150 145 146 129 153 159 178 199 205 204 190 190 189 198 215 219 212 220
61 90 110 122 148 217 244 287 285 114 256 246 164 154 140 89 84 260 284 342 349 344 319 300 335 71 126 224 128 118 152 175 223 222 216 213 205 202 205 211 218 216 207 223
46 52 100 140 185 251 261 293 60 161 240 230 174 168 165 179 206 230 267 306 312 319 311 308 342 132 257 252 138 160 248 265 262 245 218 218 214 212 211 210 211 202 207 225
153 138 161 141 172 245 298 51 171 216 249 177 178 178 170 179 165 164 212 270 331 343 330 319 319 312 306 260 169 198 244 259 271 268 252 244 233 226 217 201 212 205 201 216
181 186 182 183 207 251 289 243 251 197 191 211 181 179 156 164 224 254 283 295 319 322 315 302 275 304 314 283 203 209 249 255 248 256 260 258 244 227 216 205 211 208 208 218
276 146 135 231 276 292 305 312 328 291 213 217 179 175 167 186 220 253 274 298 315 308 310 310 305 312 309 299 279 261 266 247 204 264 268 259 243 235 227 210 204 209 214 221
233 161 134 251 282 315 313 292 290 350 33 58 71 187 179 170 208 227 249 269 276 289 297 304 288 292 300 310 309 304 296 258 226 258 262 262 253 232 228 225 218 214 221 218
211 180 176 223 229 212 257 271 277 34 17 21 44 350 303 186 206 227 248 264 272 279 291 301 302 292 292 300 306 306 293 247 220 267 272 263 261 254 237 233 257 240 228 228